User: anonymous   Login
Location: Unspecified
(0.0000°N, 0.0000°E)
Time: 00:52:53
(UTC+00:00)
Language:

STARLINK-4148 - Orbit

View from above orbital plane
View from above orbital plane
View from above satellite
View from above satellite

Ground track
Ground track

The orbit is defined by the following mean orbital elements,

1 53293U          26145.39170391 +.00000000 +00000-0 +12711-3 0 00001
2 53293  53.2151 189.7819 0000920 123.6338 236.4742 15.08854039    02
Epoch (UTC): 25 May 2026 09:24:03
Eccentricity: 0.0000920
inclination: 53.2151°
perigee height: 539 km
apogee height: 540 km
right ascension of ascending node: 189.7819°
argument of perigee: 123.6338°
revolutions per day: 15.08854039
mean anomaly at epoch: 236.4742°

The dashed part of the orbit path shows where the satellite is in the earth's shadow,  

DLR